STARLINK-34102, 63806

Orbit data source: Space-Track

STARLINK-34102, 63806 is a payload satellite owned by SpaceX/Seattle (US) in LEO that was launched on Sun, 04 May 2025 UTC via an FALCON 9 launch vehicle from the Air Force Eastern Test Range (AFETR). Payload-class satellites include a variety of spacecraft equipped with specific instruments for various scientific and technological missions. These include communications satellites like Starlink; space stations such as the ISS; scientific satellites like the Hubble; Earth observation satellites from companies like Planet Labs, Umbra, and HawkEye 360; GPS; miniature CubeSats for education and research; and military/defense satellites.

Loading next visibility...
Identifier
63806, 2025-092C
Orbit
LEO
Country
Flag of USUS
Related business
Manufacturer
SpaceX/Seattle
Mission
Operational Commercial Communications
Bus & Motor
STARLINK V2MO, Unknown motor
Mass
575 kg wet, ~530 kg dry
Launch date (UTC)
2025-05-04 (7 months ago)
Launch vehicle
FALCON 9
Launch site
Air Force Eastern Test Range (AFETR)
Object type
Payload
Rocket body
Debris
Shape & HBR
Box + 2 Pan, 17.7 m
Radar Cross Section
36.964 m², Large (>1 m²)

Expand to show TLE details & history
Last TLE update: 20 hours ago

TLE from 20 hours ago
0 STARLINK-34102
1 63806U 25092C   25347.26778563  .00056258  00000-0  20349-2 0  9992
2 63806  43.0023 300.9545 0001434 282.0927  77.9764 15.27635312 35446
Epoch: 2025-12-13T06:25Z
TLE epoch observation values (Epoch: 2025-12-13T06:25:36.678Z)
Latitude
-0.00001°
Longitude
122.35416°
Altitude
482.454 km
Speed
7.626 km/s
True Right ascension
20h 03m 49s
True Declination
0° 00' 00"
Sunlit
Object was in daylight at epoch
Visualization orbit readout
Latitude
Unknown
Longitude
Unknown
Altitude
Unknown
Speed
Unknown
Apparent Right ascension
Unknown
Apparent Declination
Unknown
Sunlit
N/A
Visualization observer readout
Local Sidereal Time
01:11:25
Azimuth
Unknown
Elevation
Unknown
Doppler factor
Unknown
Orbital elements
Apogee altitude
485.812 km
Perigee altitude
483.844 km
Semi-major axis
6,862.965 km
Eccentricity
0.00014
Inclination
43.0023°
RAAN
300.9545°
Arg. of periapsis
282.0927°
True anomaly
77.99247°
Mean anomaly
77.9764°
Eccentric anomaly
77.98444°
Mean motion
3.81747 °/min
Orbital period
94.3 mins
BSTAR
0.0020349
Loading maneuver chart data...
Computing Atmospheric mass density...
Loading historical data...
Loading historical data...
Loading historical data...
Loading historical data...
Loading historical data...
Loading historical data...
Loading historical data...

Documentation

Showing up to 5 results
|